星链-2143 (STARLINK-2143 )

导读 | 星芒AI

STARLINK-2143 是 SpaceX Starlink 项目中的一颗低轨通信卫星,属于第二代星链星座的一部分。该卫星于2023年发射,旨在为全球用户提供高速、低延迟的互联网服务。它运行在约550公里高的近地轨道,采用先进推进系统和激光通信技术,以提升网络效率和覆盖范围。STARLINK-2143 的部署有助于增强 Starlink 网络的稳定性和容量,特别是在偏远和网络基础设施薄弱的地区。

基本信息
目录编号:
47733
目录名称:
STARLINK-2143
国际标识:
2021-017M
轨道中心:
EARTH
卫星名称:
星链-2143
卫星全名:
星链-2143 (STARLINK-2143 )
卫星状态:
在轨 (已飞行1701 天)
发射日期:
2021-03-04 UTC
国别 :
美国 (US)
星等 :
--
轨道信息
数据来源 国际轨道数据 AOE轨道数据
星历时间 2025-10-30T00:29:04+0800
14小时前
查看轨道信息
2025-10-24T17:00:00+0800
5天前
查看轨道信息
半长轴 6925.313km 6925.351km
偏心率 0.0001266 0.0002098
轨道倾角 53.054° 53.053°
近地点辐角 93.218° 83.791°
升交点赤经 89.710° 113.556°
平近点角 266.895° 254.067°
近地点 546.301km 545.763km
远地点 548.055km 548.669km
周期 95.591分钟 95.592分钟
每日圈数 15.064119 15.063995
详细信息
固有亮度:
5
最大亮度:
2.5
卫星平台:
Starlink V1.0
覆盖范围:
全球
运营商:
太空探索技术公司
运营商所在国:
美国
制造商(研发单位):
太空探索技术公司
制造商所在国:
美国
使用方式:
暂无
卫星简介
星链(Starlink)计划是由太空探索技术公司(SpaceX)提出的一个巨型低轨卫星互联网星座项目,计划在2019年至2024年间在太空搭建由约1.2万颗卫星组成的“星链”网络,其中1584颗将部署在地球上空550千米处的近地轨道,并从2020年开始工作。该卫星仍在工作。
2D轨道图
3D轨道图
轨道高度分析图
轨道倾角分析图
轨道综合分析图
查看轨道综合分析图